This demonstration page uses our WeatherBlox Daily Observations layout. Learn more.

Left ArrowRight Arrow

41.55636, -103.73856

Hourly Observations for November 30, 2019

Temp ( °F °C ) Dew Point ( °F °C ) Humidity (%) Winds ( mph kmh ) Pressure ( in mb ) Visibility ( mi km ) Precip ( " mm )
12:58 am 00:58 Cloudy 29 -1.4 29 -1.6 99 99 ESE 15 24 29.56 1001 7 11.26538 N/A
1:58 am 01:58 Cloudy with Light Freezing Drizzle 30 -1.2 29 -1.5 98 98 N N/A 29.53 1000 5 8.0467 N/A
2:58 am 02:58 Mostly Cloudy with Light Freezing Rain 30 -1.3 29 -1.5 99 99 N N/A 29.52 1000 2.5 4.02335 N/A
3:58 am 03:58 Cloudy with Light Snow 30 -1.3 29 -1.5 99 99 N N/A 29.49 999 2.5 4.02335 0.01 0.254
4:58 am 04:58 Mostly Cloudy with Heavy Snow 29 -1.8 29 -1.9 99 99 N N/A 29.44 997 3 4.82802 0.03 0.762
5:58 am 05:58 Cloudy with Snow 29 -1.9 28 -2.1 99 99 N N/A 29.41 996 1 1.60934 0.03 0.762
6:58 am 06:58 Cloudy with Light Snow 28 -2 28 -2.1 99 99 N N/A 29.41 996 1.5 2.41401 0.02 0.508
7:58 am 07:58 Cloudy with Light Snow 28 -2 28 -2.2 99 99 N N/A 29.39 995 1.75 2.816345 0.02 0.508
8:58 am 08:58 Cloudy with Light Snow 28 -2.1 28 -2.3 99 99 N N/A 29.39 995 1.75 2.816345 0.01 0.254
9:58 am 09:58 Cloudy with Light Snow 26 -3.1 26 -3.4 98 98 N N/A 29.42 996 3 4.82802 N/A
10:58 am 10:58 Mostly Cloudy with Light Snow 25 -3.9 24 -4.6 95 95 N N/A 29.48 998 4 6.43736 N/A
11:58 am 11:58 Cloudy with Snow 24 -4.4 23 -4.8 97 97 N N/A 29.52 1000 1.25 2.011675 N/A
12:59 pm 12:59 Cloudy with Snow 25 -3.9 24 -4.3 97 97 N N/A 29.54 1000 1.25 2.011675 N/A
1:58 pm 13:58 Mostly Cloudy with Light Snow 23 -4.8 21 -5.9 92 92 N N/A 29.57 1001 5 8.0467 N/A
2:58 pm 14:58 Mostly Cloudy with Light Snow 22 -5.8 20 -6.7 93 93 N N/A 29.6 1003 3 4.82802 N/A
5:58 pm 17:58 Mostly Cloudy with Snow 22 -5.6 20 -6.6 93 93 N N/A 29.7 1006 0.25 0.402335 N/A
6:58 pm 18:58 Cloudy with Snow 21 -5.9 20 -6.9 93 93 N N/A 29.74 1007 3 4.82802 N/A
7:58 pm 19:58 Mostly Cloudy with Light Snow 21 -5.9 20 -6.9 93 93 N N/A 29.77 1008 3 4.82802 N/A
8:58 pm 20:58 Mostly Cloudy with Light Snow 21 -6 19 -7.3 91 91 N N/A 29.81 1010 3 4.82802 N/A
9:58 pm 21:58 Mostly Cloudy with Light Snow 22 -5.8 19 -7 91 91 N N/A 29.87 1012 0.5 0.80467 N/A
10:58 pm 22:58 Mostly Cloudy with Light Snow 21 -6.2 18 -7.7 89 89 N N/A 29.93 1013 5 8.0467 N/A
11:58 pm 23:58 Mostly Cloudy with Light Snow 21 -6.2 19 -7.5 91 91 N N/A 29.98 1015 5 8.0467 N/A

Powered by AerisWeather